TimeCDT,TemperatureF,Dew PointF,Humidity,Sea Level PressureIn,VisibilityMPH,Wind Direction,Wind SpeedMPH,Gust SpeedMPH,PrecipitationIn,Events,Conditions,WindDirDegrees,DateUTC
12:54 AM,59.0,55.0,87,29.98,10.0,NW,6.9,-,N/A,,Clear,320,2013-09-02 05:54:00
1:54 AM,57.0,53.1,87,29.98,10.0,NNW,6.9,-,N/A,,Clear,330,2013-09-02 06:54:00
2:54 AM,55.0,52.0,89,29.99,10.0,NNW,5.8,-,N/A,,Clear,340,2013-09-02 07:54:00
3:54 AM,55.0,53.1,93,30.00,10.0,NW,6.9,-,N/A,,Overcast,320,2013-09-02 08:54:00
4:54 AM,53.1,51.1,93,30.01,10.0,NW,6.9,-,N/A,,Clear,320,2013-09-02 09:54:00
5:54 AM,52.0,51.1,97,30.02,10.0,NW,8.1,-,N/A,,Clear,320,2013-09-02 10:54:00
6:54 AM,53.1,51.1,93,30.04,10.0,NNW,6.9,-,N/A,,Overcast,330,2013-09-02 11:54:00
7:54 AM,55.9,52.0,87,30.05,10.0,North,10.4,-,N/A,,Clear,350,2013-09-02 12:54:00
8:54 AM,59.0,52.0,78,30.07,10.0,NNW,11.5,-,N/A,,Partly Cloudy,340,2013-09-02 13:54:00
9:21 AM,60.8,51.8,72,30.08,10.0,North,12.7,-,N/A,,Mostly Cloudy,360,2013-09-02 14:21:00
9:54 AM,57.9,50.0,75,30.08,10.0,North,12.7,-,N/A,,Overcast,350,2013-09-02 14:54:00
10:54 AM,57.0,50.0,77,30.09,10.0,North,11.5,-,N/A,,Overcast,10,2013-09-02 15:54:00
11:54 AM,57.9,51.1,78,30.10,10.0,NNW,12.7,17.3,N/A,,Overcast,340,2013-09-02 16:54:00
12:54 PM,57.9,51.1,78,30.10,10.0,NNW,6.9,-,N/A,,Overcast,330,2013-09-02 17:54:00
1:54 PM,59.0,51.1,75,30.09,10.0,NNW,10.4,-,N/A,,Overcast,330,2013-09-02 18:54:00
2:54 PM,60.1,51.1,72,30.09,10.0,NNW,9.2,-,N/A,,Overcast,340,2013-09-02 19:54:00
3:54 PM,60.1,51.1,72,30.08,10.0,NW,4.6,-,N/A,,Overcast,320,2013-09-02 20:54:00
4:54 PM,61.0,51.1,70,30.07,10.0,NNW,8.1,-,N/A,,Overcast,340,2013-09-02 21:54:00
5:42 PM,62.6,51.8,68,30.07,10.0,North,5.8,-,N/A,,Scattered Clouds,350,2013-09-02 22:42:00
5:54 PM,64.0,51.1,63,30.07,10.0,NNW,6.9,-,N/A,,Scattered Clouds,330,2013-09-02 22:54:00
6:54 PM,61.0,51.1,70,30.06,10.0,North,6.9,-,N/A,,Clear,350,2013-09-02 23:54:00
7:54 PM,57.9,51.1,78,30.07,10.0,WNW,3.5,-,N/A,,Clear,300,2013-09-03 00:54:00
8:54 PM,53.1,48.9,86,30.07,10.0,West,6.9,-,N/A,,Clear,270,2013-09-03 01:54:00
9:54 PM,51.1,48.0,89,30.08,10.0,West,5.8,-,N/A,,Clear,270,2013-09-03 02:54:00
10:54 PM,51.1,48.0,89,30.09,10.0,WNW,8.1,-,N/A,,Clear,290,2013-09-03 03:54:00
11:54 PM,50.0,46.9,89,30.08,9.0,WNW,5.8,-,N/A,,Clear,300,2013-09-03 04:54:00